When you browse on this site, cookies collect data to enhance your experience and personalize the content and advertising you see.
Visit our Privacy Policy to learn more. By continuing to use the site, you agree to this use of cookies and data.
  • en Suisse
  • Liste des pays
  • À 7 jours
  • Température de l'eau
  • Carte satellitaire
  • Carte météo
  • Widgets météo
  • user-avatar
    Se connecter

    Météo par heure à Zagorze

    Ce jour, 22 Mars, Vendredi

    Heure Température Précipitation Vent Pression Humidité
    00:00 +7°C° 0 mm 2 m/s 758 mmHg 91%
    01:00 +6°C° 0 mm 2 m/s 758 mmHg 92%
    02:00 +6°C° 0 mm 2 m/s 758 mmHg 92%
    03:00 +6°C° 0 mm 2 m/s 758 mmHg 93%
    04:00 +6°C° 0 mm 2 m/s 757 mmHg 93%
    05:00 +7°C° 0 mm 2 m/s 758 mmHg 93%
    06:00 +7°C° 0 mm 2 m/s 758 mmHg 93%
    07:00 +7°C° 0 mm 2 m/s 758 mmHg 92%
    08:00 +8°C° 0 mm 2 m/s 758 mmHg 89%
    09:00 +9°C° 0 mm 2 m/s 758 mmHg 86%
    10:00 +10°C° 0 mm 2 m/s 759 mmHg 83%
    11:00 +12°C° 0 mm 2 m/s 759 mmHg 79%
    12:00 +13°C° 0 mm 2 m/s 759 mmHg 74%
    13:00 +14°C° 0 mm 1 m/s 759 mmHg 70%
    14:00 +13°C° 0 mm 1 m/s 758 mmHg 72%
    15:00 +13°C° 0 mm 1 m/s 758 mmHg 75%
    16:00 +13°C° 0 mm 2 m/s 758 mmHg 77%
    17:00 +12°C° 0 mm 2 m/s 758 mmHg 81%
    18:00 +10°C° 0 mm 2 m/s 758 mmHg 84%
    19:00 +10°C° 0 mm 1 m/s 758 mmHg 88%
    20:00 +8°C° 0 mm 2 m/s 758 mmHg 89%
    21:00 +8°C° 0 mm 2 m/s 758 mmHg 90%
    22:00 +7°C° 0 mm 2 m/s 758 mmHg 91%
    23:00 +7°C° 0 mm 2 m/s 757 mmHg 91%

    Demain, 23 Mars, Samedi

    Heure Température Précipitation Vent Pression Humidité
    00:00 +7°C° 0 mm 2 m/s 757 mmHg 92%
    01:00 +6°C° 0 mm 2 m/s 757 mmHg 92%
    02:00 +6°C° 0 mm 2 m/s 757 mmHg 92%
    03:00 +6°C° 0 mm 2 m/s 756 mmHg 93%
    04:00 +6°C° 0 mm 2 m/s 756 mmHg 93%
    05:00 +5°C° 0 mm 3 m/s 756 mmHg 92%
    06:00 +5°C° 0 mm 3 m/s 756 mmHg 91%
    07:00 +5°C° 0 mm 3 m/s 755 mmHg 91%
    08:00 +9°C° 0 mm 3 m/s 755 mmHg 83%
    09:00 +11°C° 0 mm 3 m/s 755 mmHg 75%
    10:00 +13°C° 0 mm 3 m/s 755 mmHg 68%
    11:00 +14°C° 0 mm 3 m/s 754 mmHg 63%
    12:00 +16°C° 0 mm 2 m/s 754 mmHg 59%
    13:00 +18°C° 0 mm 2 m/s 753 mmHg 55%
    14:00 +18°C° 0 mm 2 m/s 753 mmHg 54%
    15:00 +18°C° 0 mm 2 m/s 752 mmHg 53%
    16:00 +19°C° 0 mm 2 m/s 752 mmHg 53%
    17:00 +17°C° 0 mm 2 m/s 752 mmHg 57%
    18:00 +16°C° 0 mm 2 m/s 752 mmHg 62%
    19:00 +14°C° 0 mm 1 m/s 752 mmHg 67%
    20:00 +14°C° 0 mm 2 m/s 752 mmHg 71%
    21:00 +12°C° 0 mm 3 m/s 753 mmHg 76%
    22:00 +11°C° 0 mm 4 m/s 753 mmHg 80%
    23:00 +10°C° 0 mm 4 m/s 753 mmHg 82%

    Après-demain, 24 Mars, Dimanche

    Heure Température Précipitation Vent Pression Humidité
    00:00 +8°C° 0 mm 4 m/s 753 mmHg 84%
    01:00 +7°C° 0 mm 4 m/s 753 mmHg 86%
    02:00 +7°C° 0 mm 4 m/s 754 mmHg 85%
    03:00 +6°C° 0 mm 4 m/s 754 mmHg 83%
    04:00 +5°C° 0 mm 4 m/s 754 mmHg 82%
    05:00 +5°C° 0 mm 4 m/s 754 mmHg 76%
    06:00 +5°C° 0 mm 4 m/s 754 mmHg 69%
    07:00 +5°C° 0 mm 4 m/s 755 mmHg 63%
    08:00 +5°C° 0 mm 4 m/s 755 mmHg 57%
    09:00 +7°C° 0 mm 3 m/s 755 mmHg 50%
    10:00 +8°C° 0 mm 3 m/s 755 mmHg 44%
    11:00 +8°C° 0 mm 4 m/s 754 mmHg 43%
    12:00 +8°C° 0 mm 4 m/s 754 mmHg 42%
    13:00 +10°C° 0 mm 4 m/s 754 mmHg 41%
    14:00 +9°C° 0 mm 5 m/s 754 mmHg 42%
    15:00 +8°C° 0 mm 5 m/s 754 mmHg 43%
    16:00 +8°C° 0 mm 5 m/s 753 mmHg 45%
    17:00 +7°C° 0 mm 4 m/s 754 mmHg 48%
    18:00 +7°C° 0 mm 3 m/s 754 mmHg 52%
    19:00 +6°C° 0 mm 2 m/s 754 mmHg 56%
    20:00 +5°C° 0 mm 2 m/s 754 mmHg 58%
    21:00 +5°C° 0 mm 2 m/s 754 mmHg 60%
    22:00 +4°C° 0 mm 2 m/s 754 mmHg 62%
    23:00 +4°C° 0 mm 2 m/s 754 mmHg 64%

    25 Mars, Lundi

    Heure Température Précipitation Vent Pression Humidité
    00:00 +3°C° 0 mm 2 m/s 754 mmHg 66%
    01:00 +3°C° 0 mm 2 m/s 754 mmHg 68%
    02:00 +3°C° 0 mm 2 m/s 753 mmHg 69%
    03:00 +1°C° 0 mm 3 m/s 753 mmHg 71%
    04:00 +1°C° 0 mm 3 m/s 753 mmHg 73%
    05:00 +1°C° 0 mm 4 m/s 753 mmHg 72%
    06:00 +1°C° 0 mm 4 m/s 752 mmHg 71%
    07:00 +2°C° 0 mm 5 m/s 752 mmHg 70%
    08:00 +3°C° 0 mm 6 m/s 752 mmHg 64%
    09:00 +4°C° 0 mm 7 m/s 751 mmHg 58%
    10:00 +5°C° 0 mm 8 m/s 751 mmHg 53%
    11:00 +5°C° 0.2 mm 8 m/s 750 mmHg 58%
    12:00 +4°C° 0.2 mm 8 m/s 750 mmHg 63%
    13:00 +3°C° 0.2 mm 9 m/s 749 mmHg 68%
    14:00 +3°C° 0.3 mm 9 m/s 749 mmHg 68%
    15:00 +3°C° 0.3 mm 9 m/s 748 mmHg 67%
    16:00 +3°C° 0.3 mm 9 m/s 748 mmHg 67%
    17:00 +2°C° 0.2 mm 8 m/s 748 mmHg 66%
    18:00 +3°C° 0.2 mm 7 m/s 748 mmHg 64%
    19:00 +2°C° 0.2 mm 6 m/s 748 mmHg 62%
    20:00 +2°C° 0 mm 6 m/s 749 mmHg 63%
    21:00 +1°C° 0 mm 6 m/s 749 mmHg 65%
    22:00 0°C° 0 mm 7 m/s 749 mmHg 66%
    23:00 -1°C° 0 mm 7 m/s 750 mmHg 68%

    26 Mars, Mardi

    Heure Température Précipitation Vent Pression Humidité
    00:00 -1°C° 0 mm 7 m/s 750 mmHg 70%
    01:00 -1°C° 0 mm 8 m/s 750 mmHg 72%
    02:00 -1°C° 0 mm 7 m/s 751 mmHg 75%
    03:00 -1°C° 0 mm 7 m/s 751 mmHg 79%
    04:00 -1°C° 0 mm 7 m/s 752 mmHg 82%
    05:00 -1°C° 0 mm 6 m/s 752 mmHg 84%
    06:00 -1°C° 0 mm 6 m/s 753 mmHg 85%
    07:00 -1°C° 0 mm 6 m/s 754 mmHg 86%
    08:00 +1°C° 0 mm 5 m/s 754 mmHg 82%
    09:00 +1°C° 0 mm 5 m/s 755 mmHg 78%
    10:00 +2°C° 0 mm 5 m/s 755 mmHg 75%
    11:00 +4°C° 0 mm 4 m/s 756 mmHg 72%
    12:00 +5°C° 0 mm 4 m/s 756 mmHg 68%
    13:00 +5°C° 0 mm 4 m/s 756 mmHg 65%
    14:00 +6°C° 0 mm 4 m/s 755 mmHg 63%
    15:00 +6°C° 0 mm 4 m/s 755 mmHg 61%
    16:00 +6°C° 0 mm 4 m/s 755 mmHg 59%
    17:00 +5°C° 0 mm 3 m/s 755 mmHg 62%
    18:00 +4°C° 0 mm 3 m/s 755 mmHg 65%
    19:00 +5°C° 0 mm 2 m/s 755 mmHg 69%
    20:00 +3°C° 0 mm 3 m/s 755 mmHg 69%
    21:00 +3°C° 0 mm 3 m/s 755 mmHg 69%
    22:00 +2°C° 0 mm 3 m/s 755 mmHg 70%
    23:00 +2°C° 0 mm 3 m/s 755 mmHg 72%

    27 Mars, Mercredi

    Heure Température Précipitation Vent Pression Humidité
    00:00 +1°C° 0 mm 4 m/s 755 mmHg 74%
    01:00 +1°C° 0 mm 4 m/s 755 mmHg 76%
    02:00 +1°C° 0.1 mm 4 m/s 754 mmHg 81%
    03:00 +3°C° 0.1 mm 4 m/s 754 mmHg 86%
    04:00 +2°C° 0.1 mm 5 m/s 754 mmHg 91%
    05:00 +3°C° 0.1 mm 5 m/s 754 mmHg 89%
    06:00 +3°C° 0.1 mm 5 m/s 753 mmHg 87%
    07:00 +3°C° 0.1 mm 5 m/s 753 mmHg 84%
    08:00 +3°C° 0.1 mm 6 m/s 753 mmHg 82%
    09:00 +4°C° 0.1 mm 6 m/s 753 mmHg 80%
    10:00 +4°C° 0.1 mm 6 m/s 753 mmHg 78%
    11:00 +4°C° 0.5 mm 6 m/s 753 mmHg 79%
    12:00 +4°C° 0.5 mm 6 m/s 753 mmHg 79%
    13:00 +4°C° 0.5 mm 7 m/s 753 mmHg 80%
    14:00 +4°C° 0.5 mm 6 m/s 753 mmHg 80%
    15:00 +5°C° 0.5 mm 6 m/s 753 mmHg 81%
    16:00 +5°C° 0.5 mm 6 m/s 753 mmHg 82%
    17:00 +5°C° 0.3 mm 6 m/s 753 mmHg 84%
    18:00 +6°C° 0.3 mm 5 m/s 753 mmHg 87%
    19:00 +6°C° 0.3 mm 5 m/s 754 mmHg 89%
    20:00 +6°C° 0.1 mm 4 m/s 754 mmHg 90%
    21:00 +6°C° 0.1 mm 4 m/s 754 mmHg 92%
    22:00 +6°C° 0.1 mm 4 m/s 754 mmHg 93%
    23:00 +5°C° 0 mm 4 m/s 755 mmHg 94%
    Voir plus